{"data":{"norad_id":60740,"epoch":"2026-09-21T20:54:52.373664Z","epoch_age_seconds":69912,"freshness":"FRESH","line1":"1 60740U 24152W   26264.87143951 -.00000440  00000+0 -18978-5 0  9996","line2":"2 60740  53.1609  75.3026 0001283 105.5559 254.5585 15.34386847116786","mean_motion":15.34386847,"eccentricity":0.0001283,"inclination_deg":53.1609,"raan_deg":75.3026,"arg_perigee_deg":105.5559,"mean_anomaly_deg":254.5585,"bstar":-1.8978e-6,"rev_number":11678,"period_min":93.848562558748,"perigee_km":461.86464915569,"apogee_km":463.62001879279,"semimajor_km":6840.8793339742,"source":"CELESTRAK","updated_at":"2026-09-22T09:00:49.281752Z"}}